#timestamp,LO_Frequency,Hit,StdDev 
1506546015.8,286047004.8,N
1506546035.6,286047004.7,N
1506546055.5,286047004.5,N
1506546075.3,286047005.6,N
1506546095.1,286047005.3,N
1506546115.8,286047004.5,N
1506546135.7,286047008.6,Y
1506546155.5,286047005.1,P
1506546175.3,286047004.9,N
1506546195.2,286047004.6,N
1506546215.0,286047003.0,N
1506546215.9,286047003.0,N
1506546235.8,286047004.9,Y
1506546255.6,286047001.8,P
1506546275.4,286047004.4,P
1506546295.2,286047002.1,N
1506546315.1,286047004.0,Y
1506546316.0,286047004.0,P
1506546335.8,286047004.0,P
1506546355.7,286047003.2,P
1506546375.5,286047012.4,Y
1506546395.3,286047012.9,P
1506546415.2,286047016.2,P
1506546435.9,286047016.5,P
1506546455.7,286047013.1,N
1506546475.5,286047012.6,N
1506546495.4,286047016.0,Y
1506546515.2,286047003.6,P
1506546535.0,286047003.1,N
1506546536.0,286047003.1,N
1506546555.8,286047001.7,N
1506546575.6,286047001.0,N
1506546595.4,286047004.0,N
1506546615.3,286047003.0,N
1506546635.1,286047004.1,N
1506546655.8,286047005.1,N
1506546675.7,286047008.8,N
1506546695.5,286047009.3,N
1506546715.3,286047012.8,Y
1506546735.2,286047005.8,P
1506546755.9,286047004.1,P
1506546775.7,286047003.7,P
1506546795.6,286047001.3,N
1506546815.4,286047001.3,N
1506546835.2,286047001.5,N
1506546855.1,286047008.6,Y
1506546856.0,286047008.6,P
1506546875.8,286047005.5,N
1506546895.6,286047007.0,P
1506546915.5,286047007.5,Y
1506546935.3,286047001.4,P
1506546955.1,286047003.2,N
1506546975.9,286047003.1,N
1506546995.7,286047004.1,N
1506547015.5,286047002.0,N
1506547035.3,286047001.3,N
1506547055.2,286047003.4,N
1506547075.0,286047003.3,N
1506547075.9,286047003.3,N
1506547095.7,286047003.1,N
1506547115.6,286047003.7,N
1506547135.4,286047004.3,Y
1506547155.2,286046997.2,P
1506547175.1,286046994.4,N
1506547176.0,286046994.4,N
1506547195.8,286046990.7,N
1506547215.6,286046993.1,N
1506547235.5,286046990.4,N
1506547255.3,286046991.2,N
1506547275.1,286046988.7,N
1506547295.9,286046988.3,N
1506547315.7,286046988.0,N
1506547335.5,286046986.7,Y
1506547355.4,286046994.1,P
1506547375.2,286046997.8,P
1506547395.0,286046998.8,N
1506547395.9,286046998.8,N
1506547415.8,286047004.2,N
1506547435.6,286047003.7,N
1506547455.4,286047007.4,N
1506547475.3,286047014.5,Y
1506547495.1,286047014.2,P
1506547496.0,286047014.2,N
1506547515.8,286047017.1,N
1506547535.7,286047015.4,N
1506547555.5,286047013.2,N
1506547575.3,286047013.5,N
1506547595.1,286047013.4,N
1506547615.9,286047012.5,N
1506547635.7,286047012.8,N
1506547655.5,286047013.5,N
1506547675.4,286047010.2,N
1506547695.2,286047006.2,N
1506547715.0,286047005.7,N
1506547715.9,286047005.7,N
1506547735.8,286047005.6,N
1506547755.6,286047002.9,N
1506547775.4,286047004.0,N
1506547795.3,286047002.7,N
1506547815.1,286047000.3,N
1506547816.0,286047000.3,N
1506547835.8,286046998.3,N
1506547855.7,286047000.7,N
1506547875.5,286046998.9,N
1506547895.3,286046997.4,N
1506547915.1,286046999.5,N
1506547935.9,286046998.5,N
1506547955.7,286046995.5,N
1506547975.5,286046994.9,N
1506547995.4,286046996.9,N
1506548015.2,286046996.6,N
1506548035.0,286046999.3,N
1506548035.9,286046999.3,N
1506548055.8,286046997.7,N
1506548075.6,286046998.8,N
1506548095.4,286047001.2,N
1506548115.3,286047002.6,N
1506548135.1,286047001.8,N
1506548136.0,286047001.8,N
1506548155.8,286047001.0,N
1506548175.7,286046996.9,N
1506548195.5,286046998.5,N
1506548215.3,286047000.0,N
1506548235.2,286047002.2,N
1506548255.9,286047000.3,N
1506548275.7,286047000.1,N
1506548295.5,286046998.3,N
1506548315.4,286046999.4,N
1506548335.2,286047000.8,N
1506548355.0,286047001.0,N
1506548355.9,286047001.0,N
1506548375.8,286047001.1,N
1506548395.6,286047002.8,N
1506548415.4,286047005.6,N
1506548435.3,286047010.4,Y
1506548455.1,286047010.9,P
1506548475.8,286047013.7,N
1506548495.7,286047013.7,N
1506548515.5,286047011.4,N
1506548535.3,286047010.8,N
1506548555.2,286047010.7,N
1506548575.9,286047010.2,N
1506548595.7,286047006.9,N
1506548615.6,286047005.8,N
1506548635.4,286047005.5,N
1506548655.2,286047003.0,N
1506548675.0,286047003.6,N
1506548676.0,286047003.6,N
1506548695.8,286047005.8,N
1506548715.6,286047006.3,N
1506548735.4,286047009.2,N
1506548755.3,286047010.2,N
1506548775.1,286047009.3,N
1506548795.8,286047007.1,N
1506548815.7,286047009.1,N
1506548835.5,286047008.5,N
1506548855.3,286047008.7,N
1506548875.2,286047004.7,N
1506548895.9,286047003.1,N
1506548915.7,286047003.7,N
1506548935.6,286047003.8,N
1506548955.4,286047001.7,N
1506548975.2,286046999.8,N
1506548995.0,286046999.4,N
1506548996.0,286046999.4,N
1506549015.8,286046996.6,N
1506549035.6,286047001.0,N
1506549055.4,286047001.2,N
1506549075.3,286046998.9,N
1506549095.1,286046993.8,N
1506549115.8,286046994.4,N
1506549135.7,286046995.6,N
1506549155.5,286046993.7,N
1506549175.3,286046994.5,N
1506549195.2,286046993.3,N
1506549215.9,286046995.6,N
1506549235.7,286046999.2,N
1506549255.6,286046995.8,N
1506549275.4,286046997.6,N
1506549295.2,286046995.7,N
1506549315.1,286046994.2,N
1506549316.0,286046994.2,N
1506549335.8,286046994.0,N
1506549355.6,286046993.5,N
1506549375.4,286046993.7,N
1506549395.3,286046990.1,N
1506549415.1,286046994.2,N
1506549435.8,286046992.1,N
1506549455.7,286046988.6,Y
1506549475.5,286046994.5,P
1506549495.3,286046993.7,P
1506549515.2,286046996.7,N
1506549535.0,286046994.9,Y
1506549535.9,286046994.9,P
1506549555.8,286047001.0,P
1506549575.6,286047001.1,N
1506549595.4,286046998.2,N
